Regional Weather Roundup
Issued by NWS Bismarck, ND

Home | Current Version | Previous Version | Text Only | Print | Product List | Glossary On
Versions: 1 2 3 4 5 6 7 8 9 10 11 12 13 14 15 16 17 18 19 20 21 22 23 24 25 26 27 28 29 30 31 32 33 34 35 36 37 38 39 40 41 42 43 44 45 46 47 48 49 50
458
ASUS43 KBIS 301302
RWRBIS

NWR BROADCAST TEXT
NATIONAL WEATHER SERVICE BISMARCK ND
800 AM CDT MON MAY 30 2016

NOTE: "FAIR" INDICATES FEW OR NO CLOUDS BELOW 12,000 FEET WITH NO
SIGNIFICANT WEATHER AND/OR OBSTRUCTIONS TO VISIBILITY.


CITY           SKY/WX    TMP DP  RH WIND       PRES   REMARKS
WILLISTON      PTSUNNY   51  45  79 NE3       29.90S
MINOT          SUNNY     59  50  72 CALM      29.89S
MINOT AFB      SUNNY     57  49  75 CALM      29.88F
BISMARCK       SUNNY     57  53  86 CALM      29.93F
DICKINSON      MOSUNNY   57  50  77 CALM      29.90R
GARRISON         N/A     57  52  83 SE3       29.91S
HETTINGER ARPT CLOUDY    60  53  77 E7        29.91S
JAMESTOWN      SUNNY     63  53  70 S5        29.93F
CARRINGTON     FAIR      63  54  72 S8        29.95S
HAZEN          FAIR      55  54  94 CALM      29.94R
MANDAN         FAIR      57  55  94 SE5       29.93F
OAKES            N/A    N/A N/A N/A MISG        N/A
STANLEY        FAIR      54  54 100 CALM      29.94S
$$

CITY           SKY/WX    TMP DP  RH WIND       PRES   REMARKS
GRAND FORKS    CLOUDY    58  51  78 S6        29.92R
GRAND FORKS AF LGT RAIN  66  52  59 SW9       29.92S
DEVILS LAKE    MOSUNNY   62  53  72 S5        29.93S
FARGO          SUNNY     64  49  57 S5        29.94S
GRAFTON        FAIR      59  55  88 S5        29.94S
GWINNER        FAIR      63  55  77 S8        29.95F
LANGDON        FAIR      59  54  82 S5        29.93S
$$

CITY           SKY/WX    TMP DP  RH WIND       PRES   REMARKS
ABERDEEN       SUNNY     64  55  72 S6        29.94S
MOBRIDGE       SUNNY     62  56  80 SE7       29.90S
BUFFALO          N/A     55  51  86 NE5       29.81F
RAPID CITY     MOSUNNY   56  52  86 SE3       29.89F
GLASGOW        CLOUDY    59  44  57 SW9       29.92S
SIDNEY         CLOUDY    54  46  76 S6        29.91F
WOLF POINT     CLOUDY    59  46  62 W7        29.90S
GLENDIVE       CLOUDY    54  48  82 NW5       29.98S
MILES CITY     TSTM      57  50  77 NW12      29.94R
BAKER          LGT RAIN  53  50  89 N24G33    29.92S
$$

CITY           SKY/WX    TMP DP  RH WIND       PRES   REMARKS
BILLINGS       CLOUDY    53  50  89 SW10      30.00S
GREAT FALLS    CLOUDY    46  41  82 NW10      30.05R
$$





USA.gov is the U.S. government's official web portal to all federal, state and local government web resources and services.